sat.trackr.live / text

‹ back to catalog

NAVSTAR 46 (USA 145)

NORAD 25933 · 1999-055A

PAYLOAD ACTIVE UNKNOWN

§ Identity

Operator
Country
US
Launch date
1999-10-07
Launch site
AFETR
Launch vehicle
Mass (kg)
RCS (m²)
3.98

External: N2YO · Heavens-Above · Gunter

§ Orbital elements

Epoch: 2026-05-24T08:57:35.288640Z

Period
717.98 min
Inclination
51.4860°
Eccentricity
0.0106641
Mean motion
2.00563448 rev/d
Perigee alt
19,899.0 km
Apogee alt
20,465.5 km
Semi-major
26,560.4 km
B*
0.0000e+0
RAAN
296.5098°
Arg perigee
174.4887°
Mean anomaly
192.5939°
Rev number
19,510

§ Raw data

NAVSTAR 46 (USA 145)1 25933U 99055A   26144.37332510 -.00000082  00000+0  00000+0 0  99902 25933  51.4860 296.5098 0106641 174.4887 192.5939  2.00563448195100

JSON: /api/v1/satellites/25933 · /tle

For live sub-satellite position, see the globe view (requires WebGL).

§ Visibility from observer

Set your observer location to see the next 7 days of passes ≥ 10°. The values pass through the URL so the page stays shareable.

No JS? Fill the form by hand. The geolocation button needs JavaScript.